Tracking 19212 objects as of 17-Jul-2018
HD Live streaming from Space Station
objects crossing your sky now

FLOCK 3P 81

Track FLOCK 3P 81 now!
10-day predictions
FLOCK 3P 81 is classified as:


NORAD ID: 42043
Int'l Code: 2017-008CZ
Perigee: 494.9 km
Apogee: 504.0 km
Inclination: 97.5 °
Period: 94.5 minutes
Semi major axis: 6870 km
RCS: Unknown
Launch date: February 15, 2017
Source: United States (US)
Launch site: SRIHARIKOTA (SRI)
aabbcc
Your satellite tracking list
Your tracking list is empty




NASA's NSSDC Master Catalog

Two Line Element Set (TLE):
1 42043U 17008CZ  18197.72619835 +.00001155 +00000-0 +49917-4 0  9992
2 42043 097.4510 262.6425 0006637 249.2308 110.8219 15.24486252077799
Source of the keplerian elements: AFSPC